Location: Castelbiague
(43.0361°N, 0.9246°E)
Time: 10:38:33
(UTC+00:00)

Cosmos 2219 Rocket - Pass Details

Date: 17 June 2021
Orbit: 829 x 845 km, 71.0° (Epoch: 03 August)

Event Time Altitude Azimuth Distance (km) Brightness Sun altitude
Exits shadow 22:49:14 12° 230° (SW) 2,322 4.3 -21.7°
Maximum altitude 22:54:14 45° 301° (WNW) 1,142 3.1 -22.0°
Drops below altitude 10° 22:59:40 10° 14° (NNE) 2,473 5.5 -22.2°
Sets 23:02:14 0° 20° (NNE) 3,410 6.2 -22.4°
